TimeEDT,TemperatureF,Dew PointF,Humidity,Sea Level PressureIn,VisibilityMPH,Wind Direction,Wind SpeedMPH,Gust SpeedMPH,PrecipitationIn,Events,Conditions,WindDirDegrees,DateUTC
12:15 AM,53.6,51.8,94,30.11,10.0,Calm,Calm,-,N/A,,Clear,0,2013-07-26 04:15:00
12:35 AM,53.6,51.8,94,30.11,9.0,Calm,Calm,-,N/A,,Clear,0,2013-07-26 04:35:00
12:55 AM,53.6,51.8,94,30.10,9.0,Calm,Calm,-,N/A,,Clear,0,2013-07-26 04:55:00
1:15 AM,51.8,51.8,100,30.10,4.0,Calm,Calm,-,N/A,,Clear,0,2013-07-26 05:15:00
1:35 AM,51.8,51.8,100,30.10,9.0,Calm,Calm,-,N/A,,Clear,0,2013-07-26 05:35:00
1:55 AM,51.8,50.0,94,30.10,10.0,Calm,Calm,-,N/A,,Clear,0,2013-07-26 05:55:00
2:15 AM,50.0,48.2,94,30.11,1.5,Calm,Calm,-,N/A,,Clear,0,2013-07-26 06:15:00
2:35 AM,51.8,50.0,94,30.11,5.0,Calm,Calm,-,N/A,,Clear,0,2013-07-26 06:35:00
2:55 AM,50.0,48.2,94,30.11,1.0,Calm,Calm,-,N/A,,Clear,0,2013-07-26 06:55:00
3:15 AM,51.8,51.8,100,30.11,10.0,Calm,Calm,-,N/A,,Clear,0,2013-07-26 07:15:00
3:35 AM,50.0,50.0,100,30.11,4.0,Calm,Calm,-,N/A,,Clear,0,2013-07-26 07:35:00
3:55 AM,50.0,48.2,94,30.11,10.0,Calm,Calm,-,N/A,,Clear,0,2013-07-26 07:55:00
4:15 AM,48.2,46.4,93,30.11,2.0,Calm,Calm,-,N/A,,Clear,0,2013-07-26 08:15:00
4:35 AM,48.2,48.2,100,30.11,2.0,Calm,Calm,-,N/A,,Clear,0,2013-07-26 08:35:00
4:55 AM,50.0,48.2,94,30.10,9.0,Calm,Calm,-,N/A,,Clear,0,2013-07-26 08:55:00
5:15 AM,48.2,46.4,93,30.11,1.5,Calm,Calm,-,N/A,,Clear,0,2013-07-26 09:15:00
5:35 AM,48.2,48.2,100,30.10,2.0,Calm,Calm,-,N/A,,Clear,0,2013-07-26 09:35:00
5:55 AM,48.2,48.2,100,30.11,1.0,Calm,Calm,-,N/A,,Clear,0,2013-07-26 09:55:00
6:15 AM,48.2,46.4,93,30.11,4.0,Calm,Calm,-,N/A,,Clear,0,2013-07-26 10:15:00
6:35 AM,48.2,46.4,93,30.12,0.8,Calm,Calm,-,N/A,,Unknown,0,2013-07-26 10:35:00
6:55 AM,48.2,48.2,100,30.12,7.0,Calm,Calm,-,N/A,,Clear,0,2013-07-26 10:55:00
7:15 AM,51.8,51.8,100,30.12,10.0,Calm,Calm,-,N/A,,Clear,0,2013-07-26 11:15:00
7:35 AM,53.6,53.6,100,30.12,10.0,Calm,Calm,-,N/A,,Clear,0,2013-07-26 11:35:00
7:55 AM,55.4,55.4,100,30.13,10.0,Calm,Calm,-,N/A,,Clear,0,2013-07-26 11:55:00
8:15 AM,57.2,55.4,94,30.13,10.0,Calm,Calm,-,N/A,,Clear,0,2013-07-26 12:15:00
8:35 AM,60.8,55.4,82,30.13,10.0,Calm,Calm,-,N/A,,Clear,0,2013-07-26 12:35:00
8:55 AM,62.6,57.2,82,30.13,10.0,Calm,Calm,-,N/A,,Clear,0,2013-07-26 12:55:00
9:15 AM,64.4,57.2,77,30.13,10.0,Calm,Calm,-,N/A,,Clear,0,2013-07-26 13:15:00
9:35 AM,66.2,57.2,73,30.13,10.0,Calm,Calm,-,N/A,,Clear,0,2013-07-26 13:35:00
9:55 AM,69.8,57.2,64,30.13,10.0,Calm,Calm,-,N/A,,Clear,0,2013-07-26 13:55:00
10:15 AM,69.8,57.2,64,30.13,10.0,Calm,Calm,-,N/A,,Clear,0,2013-07-26 14:15:00
10:35 AM,71.6,53.6,53,30.14,10.0,Calm,Calm,-,N/A,,Clear,0,2013-07-26 14:35:00
10:55 AM,71.6,53.6,53,30.13,10.0,North,3.5,-,N/A,,Clear,360,2013-07-26 14:55:00
11:15 AM,73.4,55.4,53,30.14,10.0,North,3.5,-,N/A,,Clear,360,2013-07-26 15:15:00
11:35 AM,71.6,53.6,53,30.13,10.0,SE,4.6,-,N/A,,Clear,140,2013-07-26 15:35:00
11:55 AM,73.4,53.6,50,30.13,10.0,South,4.6,-,N/A,,Clear,190,2013-07-26 15:55:00
12:15 PM,73.4,53.6,50,30.13,10.0,Calm,Calm,-,N/A,,Clear,0,2013-07-26 16:15:00
12:35 PM,73.4,53.6,50,30.12,10.0,East,6.9,-,N/A,,Clear,80,2013-07-26 16:35:00
12:55 PM,73.4,53.6,50,30.12,10.0,East,3.5,-,N/A,,Clear,80,2013-07-26 16:55:00
1:15 PM,75.2,53.6,47,30.12,10.0,WNW,3.5,-,N/A,,Clear,290,2013-07-26 17:15:00
1:35 PM,75.2,55.4,50,30.12,10.0,ENE,4.6,-,N/A,,Clear,70,2013-07-26 17:35:00
1:55 PM,75.2,53.6,47,30.11,10.0,South,5.8,-,N/A,,Clear,180,2013-07-26 17:55:00
2:15 PM,75.2,53.6,47,30.10,10.0,East,3.5,-,N/A,,Clear,80,2013-07-26 18:15:00
2:35 PM,75.2,53.6,47,30.10,10.0,SE,3.5,-,N/A,,Clear,130,2013-07-26 18:35:00
2:55 PM,75.2,51.8,44,30.10,10.0,NNE,3.5,-,N/A,,Clear,30,2013-07-26 18:55:00
3:15 PM,77.0,57.2,50,30.09,10.0,East,8.1,-,N/A,,Clear,100,2013-07-26 19:15:00
3:35 PM,77.0,55.4,47,30.08,10.0,SE,4.6,-,N/A,,Clear,130,2013-07-26 19:35:00
3:55 PM,75.2,53.6,47,30.08,10.0,East,5.8,-,N/A,,Clear,90,2013-07-26 19:55:00
4:15 PM,77.0,55.4,47,30.07,10.0,ESE,6.9,-,N/A,,Clear,110,2013-07-26 20:15:00
4:35 PM,78.8,55.4,44,30.07,10.0,SE,3.5,-,N/A,,Clear,130,2013-07-26 20:35:00
4:55 PM,78.8,57.2,47,30.07,10.0,South,4.6,-,N/A,,Clear,190,2013-07-26 20:55:00
5:15 PM,77.0,57.2,50,30.07,10.0,East,5.8,-,N/A,,Clear,80,2013-07-26 21:15:00
5:35 PM,77.0,55.4,47,30.06,10.0,ESE,5.8,-,N/A,,Clear,110,2013-07-26 21:35:00
5:55 PM,75.2,57.2,53,30.05,10.0,Calm,Calm,-,N/A,,Clear,0,2013-07-26 21:55:00
6:15 PM,77.0,59.0,54,30.05,10.0,NNE,4.6,-,N/A,,Clear,20,2013-07-26 22:15:00
6:35 PM,77.0,55.4,47,30.05,10.0,SE,3.5,-,N/A,,Clear,140,2013-07-26 22:35:00
6:55 PM,77.0,57.2,50,30.05,10.0,SE,4.6,-,N/A,,Clear,130,2013-07-26 22:55:00
7:15 PM,75.2,57.2,53,30.05,10.0,SE,3.5,-,N/A,,Clear,130,2013-07-26 23:15:00
7:35 PM,75.2,57.2,53,30.04,10.0,East,3.5,-,N/A,,Clear,80,2013-07-26 23:35:00
7:55 PM,71.6,62.6,73,30.04,10.0,Calm,Calm,-,N/A,,Clear,0,2013-07-26 23:55:00
8:15 PM,68.0,62.6,83,30.04,10.0,Calm,Calm,-,N/A,,Clear,0,2013-07-27 00:15:00
8:35 PM,66.2,60.8,83,30.04,10.0,Calm,Calm,-,N/A,,Clear,0,2013-07-27 00:35:00
8:55 PM,64.4,60.8,88,30.04,10.0,Calm,Calm,-,N/A,,Clear,0,2013-07-27 00:55:00
9:15 PM,62.6,60.8,94,30.04,10.0,Calm,Calm,-,N/A,,Clear,0,2013-07-27 01:15:00
9:35 PM,62.6,60.8,94,30.04,10.0,Calm,Calm,-,N/A,,Clear,0,2013-07-27 01:35:00
9:55 PM,60.8,60.8,100,30.05,10.0,Calm,Calm,-,N/A,,Clear,0,2013-07-27 01:55:00
10:15 PM,60.8,57.2,88,30.05,10.0,Calm,Calm,-,N/A,,Clear,0,2013-07-27 02:15:00
10:35 PM,60.8,57.2,88,30.05,10.0,Calm,Calm,-,N/A,,Clear,0,2013-07-27 02:35:00
10:55 PM,60.8,59.0,94,30.05,10.0,Calm,Calm,-,N/A,,Clear,0,2013-07-27 02:55:00
11:15 PM,59.0,57.2,94,30.05,5.0,Calm,Calm,-,N/A,,Clear,0,2013-07-27 03:15:00
11:35 PM,59.0,57.2,94,30.04,8.0,Calm,Calm,-,N/A,,Clear,0,2013-07-27 03:35:00
11:55 PM,57.2,57.2,100,30.04,4.0,Calm,Calm,-,N/A,,Clear,0,2013-07-27 03:55:00